Time,TemperatureF,DewpointF,PressureIn,WindDirection,WindDirectionDegrees,WindSpeedMPH,WindSpeedGustMPH,Humidity,HourlyPrecipIn,Conditions,Clouds,dailyrainin,SoftwareType,DateUTC
2013-04-11 00:06:00,36.7,32.0,29.97,NE,53,13.0,-999.0,82,-99.99,,,0.00,weatherlink.com 1.10,2013-04-11 04:06:00,
2013-04-11 00:21:00,36.7,31.0,29.95,ENE,72,8.0,-999.0,81,-99.99,,,0.00,weatherlink.com 1.10,2013-04-11 04:21:00,
2013-04-11 00:36:00,36.8,31.0,29.96,ENE,76,11.0,-999.0,80,-99.99,,,0.00,weatherlink.com 1.10,2013-04-11 04:36:00,
2013-04-11 00:51:00,36.8,31.0,29.94,ENE,60,21.0,-999.0,79,-99.99,,,0.00,weatherlink.com 1.10,2013-04-11 04:51:00,
2013-04-11 01:06:00,36.7,31.0,29.94,ENE,57,14.0,-999.0,80,-99.99,,,0.00,weatherlink.com 1.10,2013-04-11 05:06:00,
2013-04-11 01:21:00,36.7,31.0,29.94,ENE,57,13.0,-999.0,80,-99.99,,,0.00,weatherlink.com 1.10,2013-04-11 05:21:00,
2013-04-11 01:36:00,36.9,31.0,29.96,East,81,11.0,-999.0,79,-99.99,,,0.00,weatherlink.com 1.10,2013-04-11 05:36:00,
2013-04-11 01:51:00,36.7,31.0,29.98,East,91,11.0,-999.0,81,-99.99,,,0.00,weatherlink.com 1.10,2013-04-11 05:51:00,
2013-04-11 02:06:00,36.4,32.0,29.97,East,86,13.0,-999.0,84,-99.99,,,0.01,weatherlink.com 1.10,2013-04-11 06:06:00,
2013-04-11 02:21:00,36.0,32.0,29.95,ENE,75,10.0,-999.0,85,-99.99,,,0.03,weatherlink.com 1.10,2013-04-11 06:21:00,
2013-04-11 02:36:00,35.7,33.0,29.95,East,82,7.0,-999.0,88,-99.99,,,0.06,weatherlink.com 1.10,2013-04-11 06:36:00,
2013-04-11 03:06:00,35.1,33.0,29.91,East,80,14.0,-999.0,91,-99.99,,,0.16,weatherlink.com 1.10,2013-04-11 07:06:00,
2013-04-11 03:21:00,35.1,33.0,29.91,ENE,61,10.0,-999.0,92,-99.99,,,0.23,weatherlink.com 1.10,2013-04-11 07:21:00,
2013-04-11 03:36:00,34.9,33.0,29.91,ENE,72,13.0,-999.0,92,-99.99,,,0.33,weatherlink.com 1.10,2013-04-11 07:36:00,
2013-04-11 04:06:00,34.6,33.0,29.91,ENE,59,11.0,-999.0,93,-99.99,,,0.44,weatherlink.com 1.10,2013-04-11 08:06:00,
2013-04-11 04:21:00,34.6,33.0,29.92,NE,41,6.0,-999.0,93,-99.99,,,0.48,weatherlink.com 1.10,2013-04-11 08:21:00,
2013-04-11 04:36:00,34.6,33.0,29.93,ENE,63,13.0,-999.0,94,-99.99,,,0.52,weatherlink.com 1.10,2013-04-11 08:36:00,
2013-04-11 04:51:00,34.6,33.0,29.93,ENE,72,12.0,-999.0,94,-99.99,,,0.55,weatherlink.com 1.10,2013-04-11 08:51:00,
2013-04-11 05:06:00,34.7,33.0,29.91,ENE,76,13.0,-999.0,94,-99.99,,,0.57,weatherlink.com 1.10,2013-04-11 09:06:00,
2013-04-11 05:21:00,34.7,33.0,29.85,ENE,76,18.0,-999.0,94,-99.99,,,0.57,weatherlink.com 1.10,2013-04-11 09:21:00,
2013-04-11 05:36:00,34.8,33.0,29.74,East,80,22.0,-999.0,94,-99.99,,,0.57,weatherlink.com 1.10,2013-04-11 09:36:00,
2013-04-11 05:51:00,35.0,34.0,29.77,East,98,12.0,-999.0,94,-99.99,,,0.58,weatherlink.com 1.10,2013-04-11 09:51:00,
2013-04-11 06:06:00,35.5,34.0,29.86,ENE,71,14.0,-999.0,93,-99.99,,,0.58,weatherlink.com 1.10,2013-04-11 10:06:00,
2013-04-11 06:21:00,35.8,34.0,29.87,East,81,15.0,-999.0,93,-99.99,,,0.58,weatherlink.com 1.10,2013-04-11 10:21:00,
2013-04-11 06:36:00,35.7,34.0,29.86,East,79,18.0,-999.0,93,-99.99,,,0.58,weatherlink.com 1.10,2013-04-11 10:36:00,
2013-04-11 06:51:00,35.6,34.0,29.87,East,82,10.0,-999.0,92,-99.99,,,0.58,weatherlink.com 1.10,2013-04-11 10:51:00,
2013-04-11 07:36:00,35.3,33.0,29.87,ENE,74,15.0,-999.0,92,-99.99,,,0.58,weatherlink.com 1.10,2013-04-11 11:36:00,
2013-04-11 07:51:00,35.4,33.0,29.87,ENE,65,24.0,-999.0,92,-99.99,,,0.58,weatherlink.com 1.10,2013-04-11 11:51:00,
2013-04-11 08:06:00,35.3,33.0,29.88,ENE,78,17.0,-999.0,91,-99.99,,,0.58,weatherlink.com 1.10,2013-04-11 12:06:00,
2013-04-11 08:21:00,35.4,33.0,29.89,ENE,72,17.0,-999.0,91,-99.99,,,0.58,weatherlink.com 1.10,2013-04-11 12:21:00,
2013-04-11 08:51:00,35.3,33.0,29.87,ENE,76,18.0,-999.0,92,-99.99,,,0.58,weatherlink.com 1.10,2013-04-11 12:51:00,
2013-04-11 09:06:00,35.0,33.0,29.88,ENE,72,19.0,-999.0,93,-99.99,,,0.58,weatherlink.com 1.10,2013-04-11 13:06:00,
2013-04-11 09:21:00,34.8,33.0,29.86,ENE,66,19.0,-999.0,94,-99.99,,,0.59,weatherlink.com 1.10,2013-04-11 13:21:00,
2013-04-11 09:51:00,34.7,33.0,29.86,ENE,70,20.0,-999.0,94,-99.99,,,0.60,weatherlink.com 1.10,2013-04-11 13:51:00,
2013-04-11 10:06:00,34.8,33.0,29.86,ENE,69,18.0,-999.0,94,-99.99,,,0.60,weatherlink.com 1.10,2013-04-11 14:06:00,
2013-04-11 10:21:00,35.0,34.0,29.84,East,82,24.0,-999.0,94,-99.99,,,0.60,weatherlink.com 1.10,2013-04-11 14:21:00,
2013-04-11 10:36:00,35.0,34.0,29.84,ENE,67,21.0,-999.0,95,-99.99,,,0.61,weatherlink.com 1.10,2013-04-11 14:36:00,
2013-04-11 10:51:00,35.1,34.0,29.84,East,97,25.0,-999.0,94,-99.99,,,0.61,weatherlink.com 1.10,2013-04-11 14:51:00,
2013-04-11 11:06:00,35.2,34.0,29.82,ENE,77,22.0,-999.0,95,-99.99,,,0.62,weatherlink.com 1.10,2013-04-11 15:06:00,
2013-04-11 11:21:00,35.2,34.0,29.83,East,82,25.0,-999.0,94,-99.99,,,0.63,weatherlink.com 1.10,2013-04-11 15:21:00,
2013-04-11 11:36:00,35.2,34.0,29.83,East,85,28.0,-999.0,94,-99.99,,,0.63,weatherlink.com 1.10,2013-04-11 15:36:00,
2013-04-11 11:51:00,35.4,34.0,29.83,ENE,70,20.0,-999.0,94,-99.99,,,0.64,weatherlink.com 1.10,2013-04-11 15:51:00,
2013-04-11 12:06:00,35.5,34.0,29.82,East,80,23.0,-999.0,94,-99.99,,,0.64,weatherlink.com 1.10,2013-04-11 16:06:00,
2013-04-11 12:21:00,35.7,34.0,29.81,East,82,20.0,-999.0,94,-99.99,,,0.64,weatherlink.com 1.10,2013-04-11 16:21:00,
2013-04-11 12:36:00,35.8,34.0,29.80,East,90,13.0,-999.0,94,-99.99,,,0.65,weatherlink.com 1.10,2013-04-11 16:36:00,
2013-04-11 12:51:00,35.6,34.0,29.81,East,92,20.0,-999.0,94,-99.99,,,0.66,weatherlink.com 1.10,2013-04-11 16:51:00,
2013-04-11 13:21:00,35.3,34.0,29.80,East,85,18.0,-999.0,94,-99.99,,,0.66,weatherlink.com 1.10,2013-04-11 17:21:00,
2013-04-11 13:51:00,35.4,34.0,29.78,East,89,22.0,-999.0,94,-99.99,,,0.70,weatherlink.com 1.10,2013-04-11 17:51:00,
2013-04-11 14:07:00,35.3,34.0,29.77,East,94,24.0,-999.0,94,-99.99,,,0.72,weatherlink.com 1.10,2013-04-11 18:07:00,
2013-04-11 14:22:00,35.3,34.0,29.76,East,88,20.0,-999.0,94,-99.99,,,0.73,weatherlink.com 1.10,2013-04-11 18:22:00,
2013-04-11 14:51:00,35.3,34.0,29.75,ENE,73,20.0,-999.0,94,-99.99,,,0.74,weatherlink.com 1.10,2013-04-11 18:51:00,
2013-04-11 15:06:00,35.1,34.0,29.76,East,86,19.0,-999.0,94,-99.99,,,0.75,weatherlink.com 1.10,2013-04-11 19:06:00,
2013-04-11 15:21:00,35.2,34.0,29.76,East,79,19.0,-999.0,94,-99.99,,,0.75,weatherlink.com 1.10,2013-04-11 19:21:00,
2013-04-11 15:38:00,35.1,34.0,29.75,East,86,29.0,-999.0,94,-99.99,,,0.77,weatherlink.com 1.10,2013-04-11 19:38:00,
2013-04-11 15:51:00,35.2,34.0,29.74,East,90,21.0,-999.0,94,-99.99,,,0.78,weatherlink.com 1.10,2013-04-11 19:51:00,
2013-04-11 16:06:00,35.1,34.0,29.75,ENE,78,20.0,-999.0,94,-99.99,,,0.78,weatherlink.com 1.10,2013-04-11 20:06:00,
2013-04-11 16:21:00,34.8,33.0,29.75,East,96,20.0,-999.0,94,-99.99,,,0.78,weatherlink.com 1.10,2013-04-11 20:21:00,
2013-04-11 16:51:00,34.7,33.0,29.74,East,86,19.0,-999.0,94,-99.99,,,0.80,weatherlink.com 1.10,2013-04-11 20:51:00,
2013-04-11 17:06:00,34.6,33.0,29.73,ENE,68,14.0,-999.0,94,-99.99,,,0.82,weatherlink.com 1.10,2013-04-11 21:06:00,
2013-04-11 17:21:00,34.6,33.0,29.75,East,86,22.0,-999.0,94,-99.99,,,0.83,weatherlink.com 1.10,2013-04-11 21:21:00,
2013-04-11 17:36:00,34.6,33.0,29.73,East,91,20.0,-999.0,94,-99.99,,,0.84,weatherlink.com 1.10,2013-04-11 21:36:00,
2013-04-11 17:51:00,34.7,33.0,29.72,East,80,14.0,-999.0,94,-99.99,,,0.84,weatherlink.com 1.10,2013-04-11 21:51:00,
2013-04-11 18:06:00,34.6,33.0,29.71,East,80,22.0,-999.0,94,-99.99,,,0.84,weatherlink.com 1.10,2013-04-11 22:06:00,
2013-04-11 18:21:00,34.5,33.0,29.72,East,80,25.0,-999.0,94,-99.99,,,0.84,weatherlink.com 1.10,2013-04-11 22:21:00,
2013-04-11 18:36:00,34.4,33.0,29.72,East,81,23.0,-999.0,94,-99.99,,,0.87,weatherlink.com 1.10,2013-04-11 22:36:00,
2013-04-11 18:51:00,34.3,33.0,29.71,East,86,15.0,-999.0,95,-99.99,,,0.92,weatherlink.com 1.10,2013-04-11 22:51:00,
2013-04-11 19:06:00,34.3,33.0,29.71,East,84,14.0,-999.0,94,-99.99,,,0.92,weatherlink.com 1.10,2013-04-11 23:06:00,
2013-04-11 19:21:00,34.3,33.0,29.71,East,88,19.0,-999.0,94,-99.99,,,0.94,weatherlink.com 1.10,2013-04-11 23:21:00,
2013-04-11 19:36:00,34.3,33.0,29.70,East,84,17.0,-999.0,94,-99.99,,,0.95,weatherlink.com 1.10,2013-04-11 23:36:00,
2013-04-11 19:51:00,34.2,33.0,29.70,ENE,78,22.0,-999.0,94,-99.99,,,0.96,weatherlink.com 1.10,2013-04-11 23:51:00,
2013-04-11 20:06:00,34.2,33.0,29.70,East,90,24.0,-999.0,95,-99.99,,,0.97,weatherlink.com 1.10,2013-04-12 00:06:00,
2013-04-11 20:21:00,34.1,33.0,29.71,East,81,19.0,-999.0,94,-99.99,,,0.98,weatherlink.com 1.10,2013-04-12 00:21:00,
2013-04-11 20:36:00,34.0,33.0,29.71,East,84,20.0,-999.0,94,-99.99,,,1.02,weatherlink.com 1.10,2013-04-12 00:36:00,
2013-04-11 20:51:00,33.9,33.0,29.70,East,84,17.0,-999.0,95,-99.99,,,1.04,weatherlink.com 1.10,2013-04-12 00:51:00,
2013-04-11 21:06:00,33.9,32.0,29.70,East,86,20.0,-999.0,94,-99.99,,,1.05,weatherlink.com 1.10,2013-04-12 01:06:00,
2013-04-11 21:21:00,33.9,32.0,29.71,ENE,59,15.0,-999.0,94,-99.99,,,1.07,weatherlink.com 1.10,2013-04-12 01:21:00,
2013-04-11 21:36:00,33.9,33.0,29.71,East,92,18.0,-999.0,95,-99.99,,,1.09,weatherlink.com 1.10,2013-04-12 01:36:00,
2013-04-11 21:51:00,33.9,33.0,29.70,ENE,78,18.0,-999.0,95,-99.99,,,1.10,weatherlink.com 1.10,2013-04-12 01:51:00,
2013-04-11 22:06:00,33.9,32.0,29.68,ENE,65,15.0,-999.0,94,-99.99,,,1.10,weatherlink.com 1.10,2013-04-12 02:06:00,
2013-04-11 22:21:00,33.9,32.0,29.68,ENE,78,17.0,-999.0,94,-99.99,,,1.10,weatherlink.com 1.10,2013-04-12 02:21:00,
2013-04-11 22:36:00,33.9,32.0,29.65,East,86,19.0,-999.0,94,-99.99,,,1.10,weatherlink.com 1.10,2013-04-12 02:36:00,
2013-04-11 22:51:00,34.1,33.0,29.66,East,80,19.0,-999.0,94,-99.99,,,1.10,weatherlink.com 1.10,2013-04-12 02:51:00,
2013-04-11 23:06:00,34.2,33.0,29.66,ENE,65,13.0,-999.0,94,-99.99,,,1.10,weatherlink.com 1.10,2013-04-12 03:06:00,
2013-04-11 23:21:00,34.1,32.0,29.66,East,82,15.0,-999.0,93,-99.99,,,1.10,weatherlink.com 1.10,2013-04-12 03:21:00,
2013-04-11 23:36:00,34.1,32.0,29.65,ENE,77,18.0,-999.0,93,-99.99,,,1.10,weatherlink.com 1.10,2013-04-12 03:36:00,
2013-04-11 23:51:00,33.9,32.0,29.65,East,87,17.0,-999.0,93,-99.99,,,1.11,weatherlink.com 1.10,2013-04-12 03:51:00,